Weather in Ovidiopol

Ukraine / Odesa District     46°15′07″N   30°25′39″E
temp.,
°C
wind,
m/s
gust,
m/s
humid.,
%
clouds,
%
prec.,
mm/h
press.,
hPa
HPBL,
m
26 february, fri
fri2623:00+7w458457 0.0 103054
02:00+6wnw348729 0.0 102937
05:00+6w45840 0.0 102848
08:00+6w33830 0.0 102752
11:00+10wsw34700 0.0 1027213
14:00+13wsw35600 0.0 1024354
17:00+12sw34640 0.0 102346
20:00+10wsw45720 0.0 102135
27 february, sat
sat2723:00+9w34740 0.0 102130
02:00+8w23790 0.0 102022
05:00+7nnw33810 0.0 101823
08:00+7nnw510820 0.0 1019233
11:00+10nnw711690 0.0 1019501
14:00+9nnw7106327 0.0 1020668
17:00+7nnw61067100 0.0 1020744
20:00+5nnw6117397 0.0 1021470
28 february, sun
sun2823:00+4nw7127889 0.0 1021455
02:00+4nw6128161 0.0 1021473
05:00+2nnw6128529 0.0 1022563
08:00+3nnw7108260 0.0 1023753
11:00+4nnw7982100 0.1 1024703
14:00+6nnw796297 0.2 1024916
17:00+5nnw7968100 0.1 1025801
20:00+4nnw4777100 0.2 1026512
1 march, mon
mon123:00+3nnw587395 0.1 1027518
02:00+2nnw578097 0.1 1027467
05:00+2nnw4781100 0.1 1027461
08:00+1nnw468596 0.1 1028321
11:00+4n456552 0.0 1029830
14:00+5n455976 0.0 1029886
17:00+4n4568100 0.0 1029697
20:00+3nne3487100 0.0 1031372
2 march, tue
tue223:00+2n469356 0.0 1032203
02:00+1nne469330 0.0 1032205
05:000n45910 0.0 1033173
08:00+1n35860 0.0 1034231
11:00+4nnw346830 0.0 1035694
14:00+5nw456564 0.0 1034694
17:00+4wnw576789 0.0 1032605
20:00+4wnw467677 0.0 1031136